BEIDOU-2 G8 (44231 NORAD) Tracking and Keplerian Element Data

This shows tracking and keplerian element data for the satellite.

Feedback or suggestion? Click here.




ElementValue
Catalog44231
NameBEIDOU-2 G8
Epoch Orbit44
Epoch Day167.1743489
Epoch Year2019
RAAN293.9599
Inclination1.8087
Eccentricity0.000311
Argument of Perigee130.906
Mean Anonmoly342.1079
Mean Motion1.00271638
Decay Rate-1.43E-06
L11 44231U 19027A 19167.17434890 -.00000143 00000-0 00000+0 0 9991
L22 44231 1.8087 293.9599 0003110 130.9060 342.1079 1.00271638 442

Live tracking and technical data element details for BEIDOU-2 G8 (NORAD 44231). BEIDOU-2 G8 can be tracked NOW for your location showing map with azimuth and elevation plus other details from your city location.

Track the satellite on the map from your city or location and see movement details for azimuth, elevation, latitude, longitude, range, height, and movement on the map or in text.







IsCatalogInMostPopularTable: catalog: 44231, numindb: 14
Update: records affected: 1



GetName: 44231 BEIDOU-2 G8

Hit Count: updated at: Fri, 19 Jul 2019 08:43:12 GMT